• In Belarus
  • List of Countries
  • For 7 days
  • Water Temperature
  • Satellite Maps
  • Weather Map
  • Weather Widgets
  • user-avatar
    Login

    Hourly Weather Polyanica

    Today, 11 December, Monday

    Time Temperature Precipitation Wind Pressure Humidity
    00:00 -7°C° 0 mm 7 mps 705 mmHg 72%
    01:00 -7°C° 0 mm 7 mps 705 mmHg 72%
    02:00 -2°C° 0 mm 3 mps 704 mmHg 81%
    03:00 -3°C° 0.1 mm 4 mps 704 mmHg 80%
    04:00 -4°C° 0.1 mm 6 mps 704 mmHg 80%
    05:00 -3°C° 0.1 mm 7 mps 705 mmHg 79%
    06:00 -3°C° 0.2 mm 7 mps 705 mmHg 80%
    07:00 -2°C° 0.2 mm 7 mps 705 mmHg 80%
    08:00 -1°C° 0 mm 5 mps 705 mmHg 80%
    09:00 -1°C° 0.3 mm 6 mps 705 mmHg 81%
    10:00 -1°C° 0.3 mm 6 mps 705 mmHg 81%
    11:00 0°C° 0.3 mm 7 mps 705 mmHg 81%
    12:00 +2°C° 0.1 mm 7 mps 705 mmHg 81%
    13:00 +2°C° 0.1 mm 7 mps 705 mmHg 80%
    14:00 +2°C° 0.1 mm 8 mps 705 mmHg 80%
    15:00 +3°C° 0 mm 7 mps 705 mmHg 80%
    16:00 +3°C° 0 mm 7 mps 705 mmHg 81%
    17:00 +3°C° 0 mm 6 mps 705 mmHg 82%
    18:00 +3°C° 0 mm 6 mps 705 mmHg 82%
    19:00 +3°C° 0 mm 6 mps 706 mmHg 82%
    20:00 +3°C° 0 mm 6 mps 706 mmHg 83%
    21:00 +3°C° 0 mm 6 mps 706 mmHg 82%
    22:00 +3°C° 0 mm 6 mps 706 mmHg 82%
    23:00 +3°C° 0 mm 6 mps 706 mmHg 82%

    Tomorrow, 12 December, Tuesday

    Time Temperature Precipitation Wind Pressure Humidity
    00:00 +3°C° 0 mm 6 mps 706 mmHg 81%
    01:00 +4°C° 0 mm 6 mps 706 mmHg 81%
    02:00 +4°C° 0 mm 7 mps 706 mmHg 80%
    03:00 +4°C° 0 mm 7 mps 706 mmHg 79%
    04:00 +4°C° 0 mm 7 mps 706 mmHg 78%
    05:00 +4°C° 0 mm 8 mps 706 mmHg 78%
    06:00 +4°C° 0 mm 7 mps 707 mmHg 78%
    07:00 +4°C° 0 mm 7 mps 707 mmHg 78%
    08:00 +4°C° 0 mm 7 mps 707 mmHg 78%
    09:00 +5°C° 0 mm 7 mps 708 mmHg 77%
    10:00 +6°C° 0 mm 7 mps 708 mmHg 76%
    11:00 +6°C° 0 mm 8 mps 708 mmHg 75%
    12:00 +6°C° 0 mm 8 mps 709 mmHg 76%
    13:00 +6°C° 0 mm 7 mps 709 mmHg 76%
    14:00 +8°C° 0 mm 7 mps 709 mmHg 77%
    15:00 +6°C° 0 mm 7 mps 710 mmHg 79%
    16:00 +7°C° 0 mm 6 mps 710 mmHg 81%
    17:00 +7°C° 0 mm 5 mps 711 mmHg 83%
    18:00 +6°C° 0.1 mm 5 mps 711 mmHg 84%
    19:00 +6°C° 0.1 mm 5 mps 711 mmHg 84%
    20:00 +6°C° 0.1 mm 4 mps 711 mmHg 85%
    21:00 +6°C° 0.2 mm 4 mps 712 mmHg 85%
    22:00 +6°C° 0.2 mm 4 mps 712 mmHg 85%
    23:00 +6°C° 0.2 mm 4 mps 712 mmHg 85%

    Day after tomorrow, 13 December, Wednesday

    Time Temperature Precipitation Wind Pressure Humidity
    00:00 +5°C° 0.7 mm 4 mps 712 mmHg 87%
    01:00 +4°C° 0.7 mm 3 mps 713 mmHg 88%
    02:00 +3°C° 0.7 mm 3 mps 713 mmHg 89%
    03:00 +3°C° 1.3 mm 3 mps 713 mmHg 90%
    04:00 +2°C° 1.3 mm 3 mps 713 mmHg 91%
    05:00 +1°C° 1.3 mm 3 mps 713 mmHg 92%
    06:00 +1°C° 1.7 mm 3 mps 714 mmHg 93%
    07:00 +1°C° 1.7 mm 2 mps 714 mmHg 93%
    08:00 +1°C° 1.7 mm 2 mps 714 mmHg 94%
    09:00 +1°C° 1.1 mm 2 mps 715 mmHg 95%
    10:00 +2°C° 1.1 mm 1 mps 715 mmHg 95%
    11:00 +1°C° 1.1 mm 1 mps 715 mmHg 96%
    12:00 +2°C° 0.2 mm 1 mps 715 mmHg 95%
    13:00 +2°C° 0.2 mm 1 mps 715 mmHg 94%
    14:00 +2°C° 0.2 mm 1 mps 715 mmHg 93%
    15:00 +2°C° 0 mm 1 mps 715 mmHg 93%
    16:00 0°C° 0 mm 0 mps 714 mmHg 93%
    17:00 -1°C° 0 mm 0 mps 714 mmHg 93%
    18:00 0°C° 0 mm 1 mps 714 mmHg 93%
    19:00 0°C° 0 mm 1 mps 714 mmHg 93%
    20:00 -1°C° 0 mm 1 mps 714 mmHg 93%
    21:00 -1°C° 0 mm 1 mps 714 mmHg 93%
    22:00 -1°C° 0 mm 1 mps 713 mmHg 93%
    23:00 -1°C° 0 mm 1 mps 713 mmHg 93%

    14 December, Thursday

    Time Temperature Precipitation Wind Pressure Humidity
    00:00 -3°C° 0 mm 2 mps 713 mmHg 93%
    01:00 -4°C° 0 mm 2 mps 712 mmHg 92%
    02:00 -4°C° 0 mm 2 mps 712 mmHg 92%
    03:00 -3°C° 0 mm 2 mps 711 mmHg 91%
    04:00 -4°C° 0 mm 3 mps 711 mmHg 89%
    05:00 -4°C° 0 mm 3 mps 711 mmHg 88%
    06:00 -4°C° 0 mm 3 mps 711 mmHg 87%
    07:00 -4°C° 0 mm 4 mps 710 mmHg 86%
    08:00 -4°C° 0 mm 4 mps 710 mmHg 86%
    09:00 -3°C° 0 mm 4 mps 710 mmHg 85%
    10:00 -2°C° 0 mm 5 mps 710 mmHg 84%
    11:00 -1°C° 0 mm 5 mps 710 mmHg 83%
    12:00 0°C° 0 mm 5 mps 709 mmHg 82%
    13:00 -1°C° 0 mm 6 mps 709 mmHg 81%
    14:00 +1°C° 0 mm 6 mps 708 mmHg 80%
    15:00 +1°C° 0 mm 6 mps 708 mmHg 81%
    16:00 0°C° 0 mm 5 mps 708 mmHg 82%
    17:00 0°C° 0 mm 5 mps 708 mmHg 83%
    18:00 0°C° 0.1 mm 5 mps 707 mmHg 83%
    19:00 0°C° 0.1 mm 5 mps 707 mmHg 83%
    20:00 0°C° 0.1 mm 5 mps 707 mmHg 83%
    21:00 0°C° 0.4 mm 5 mps 706 mmHg 84%
    22:00 0°C° 0.4 mm 5 mps 706 mmHg 84%
    23:00 +1°C° 0.4 mm 5 mps 706 mmHg 85%

    15 December, Friday

    Time Temperature Precipitation Wind Pressure Humidity
    00:00 +1°C° 0.2 mm 5 mps 705 mmHg 85%
    01:00 +1°C° 0.2 mm 5 mps 705 mmHg 85%
    02:00 +1°C° 0.2 mm 5 mps 704 mmHg 85%
    03:00 +1°C° 0.3 mm 5 mps 704 mmHg 85%
    04:00 +1°C° 0.3 mm 5 mps 703 mmHg 85%
    05:00 +1°C° 0.3 mm 5 mps 703 mmHg 86%
    06:00 +2°C° 0.2 mm 5 mps 703 mmHg 86%
    07:00 +2°C° 0.2 mm 6 mps 704 mmHg 86%
    08:00 +2°C° 0.2 mm 6 mps 704 mmHg 86%
    09:00 +2°C° 0.1 mm 6 mps 704 mmHg 86%
    10:00 +3°C° 0.1 mm 6 mps 705 mmHg 85%
    11:00 +3°C° 0.1 mm 6 mps 705 mmHg 85%
    12:00 +3°C° 0.5 mm 5 mps 705 mmHg 86%
    13:00 +4°C° 0.5 mm 3 mps 705 mmHg 87%
    14:00 +4°C° 0.5 mm 2 mps 705 mmHg 88%
    15:00 +4°C° 1.3 mm 2 mps 705 mmHg 89%
    16:00 +4°C° 1.3 mm 1 mps 704 mmHg 91%
    17:00 +4°C° 1.3 mm 1 mps 704 mmHg 93%
    18:00 +4°C° 2 mm 1 mps 704 mmHg 94%
    19:00 +3°C° 2 mm 1 mps 703 mmHg 96%
    20:00 +3°C° 2 mm 1 mps 703 mmHg 97%
    21:00 +3°C° 1.6 mm 1 mps 702 mmHg 98%
    22:00 +3°C° 1.6 mm 1 mps 702 mmHg 98%
    23:00 +3°C° 1.6 mm 1 mps 701 mmHg 98%

    16 December, Saturday

    Time Temperature Precipitation Wind Pressure Humidity
    00:00 +3°C° 1.4 mm 1 mps 700 mmHg 97%
    01:00 +3°C° 1.4 mm 1 mps 700 mmHg 97%
    02:00 +3°C° 1.4 mm 1 mps 699 mmHg 97%
    03:00 +2°C° 1 mm 2 mps 699 mmHg 97%
    04:00 +1°C° 1 mm 3 mps 699 mmHg 96%
    05:00 +1°C° 1 mm 3 mps 699 mmHg 96%
    06:00 0°C° 0.6 mm 4 mps 700 mmHg 94%
    07:00 -1°C° 0.6 mm 4 mps 701 mmHg 93%
    08:00 -1°C° 0.6 mm 4 mps 702 mmHg 92%
    09:00 -1°C° 0.3 mm 4 mps 703 mmHg 91%
    10:00 0°C° 0.3 mm 3 mps 705 mmHg 90%
    11:00 0°C° 0.3 mm 3 mps 706 mmHg 89%
    12:00 0°C° 0 mm 3 mps 706 mmHg 87%
    13:00 0°C° 0 mm 3 mps 707 mmHg 85%
    14:00 +1°C° 0 mm 3 mps 707 mmHg 84%
    15:00 0°C° 0.1 mm 3 mps 708 mmHg 86%
    16:00 -1°C° 0.1 mm 2 mps 709 mmHg 88%
    17:00 -1°C° 0.1 mm 2 mps 709 mmHg 90%
    18:00 -2°C° 0 mm 2 mps 710 mmHg 90%
    19:00 -2°C° 0 mm 2 mps 710 mmHg 90%
    20:00 -2°C° 0 mm 2 mps 711 mmHg 90%
    21:00 -2°C° 0 mm 2 mps 711 mmHg 90%
    22:00 -3°C° 0 mm 2 mps 712 mmHg 90%
    23:00 -3°C° 0 mm 2 mps 712 mmHg 90%
    Show more